Погода во Фресно

США     36°44′36″N   119°47′17″W
темп.,
°C
ветер,
м/с
пор.,
м/с
влажн.,
%
обл.,
%
осадки,
мм/ч
давл.,
гПа
погр.,
м
21 октября, чт
чт2123:00+20св112457 0.0 101816
02:00+19ссв112790 0.0 101911
05:00+18ю0028100 0.0 101811
08:00+18вюв002956 0.0 101923
11:00+22з112394 0.0 1019411
14:00+26с0124100 0.0 1017625
17:00+26в0127100 0.0 1015432
20:00+24в113196 0.0 101612
22 октября, пт
пт2223:00+21сз223598 0.0 101645
02:00+20всв1139100 0.0 101515
05:00+18юв233827 0.0 101489
08:00+17юв3652100 0.0 1015197
11:00+22ююв344872 0.0 1015850
14:00+23сз434119 0.0 10131285
17:00+21сз6654100 0.0 1012821
20:00+18сз61059100 0.0 1013587
23 октября, сб
сб2323:00+17сз6958100 0.0 1013568
02:00+15сз596255 0.0 1013478
05:00+14сз5964100 0.0 1013418
08:00+13сз486911 0.0 1013355
11:00+17сз344897 0.0 1013786
14:00+21сз3332100 0.0 10121428
17:00+22ссз2227100 0.0 10101391
20:00+19ссз2532100 0.0 1011263
24 октября, вс
вс2423:00+18вюв123768 0.0 101155
02:00+17юв3439100 0.0 1011238
05:00+16вюв3655100 0.0 1010204
08:00+16ююв51053100 0.0 1009395
11:00+14вюв61173100 1.7 1010434
14:00+15юв61275100 1.3 1009524
17:00+17ююв61262100 1.4 1007944
20:00+18ююв71462100 0.0 10071101
25 октября, пн
пн2523:00+19ююв91658100 0.1 10051365
02:00+17ю91875100 4.4 10041381
05:00+16ю71390100 12.4 1004769
08:00+17ю4776100 3.3 1005440
11:00+14сз41071100 4.9 1009530
14:00+15св346344 1.5 1010785
17:00+17ююз124892 1.6 1011896
20:00+15зсз24626 0.1 1013309